This demonstration page uses our WeatherBlox Daily Observations layout. Learn more.

Left ArrowRight Arrow

34.16533, -84.80231

Hourly Observations for July 24, 2017

Temp ( °F °C ) Dew Point ( °F °C ) Humidity (%) Winds ( mph kmh ) Pressure ( in mb ) Visibility ( mi km ) Precip ( " mm )
12:53 am 00:53 Clear with Mist and Fog 73 22.8 73 22.8 100 100 SSE 3 6 29.89 1012 5 8 0.00 0.00
1:53 am 01:53 Clear with Mist and Fog 73 22.8 73 22.8 100 100 Calm 29.88 1012 5 8 0.00 0.00
2:53 am 02:53 Mostly Clear with Mist and Fog 72 22.2 72 22.2 100 100 Calm 29.90 1013 5 8 0.00 0.00
3:53 am 03:53 Mostly Cloudy with Mist and Fog 73 22.8 73 22.8 100 100 Calm 29.89 1012 5 8 0.00 0.00
4:50 am 04:50 Mostly Cloudy with Mist and Fog 73 23 73 23 100 100 Calm 29.94 1014 5 8 0.00 0.00
4:53 am 04:53 Cloudy with Mist and Fog 74 23.3 74 23.3 100 100 Calm 29.90 1013 5 8 0.00 0.00
5:35 am 05:35 Mostly Cloudy with Mist and Fog 74 23.3 74 23.3 100 100 Calm 29.94 1014 5 8 0.00 0.00
5:53 am 05:53 Cloudy with Mist and Fog 74 23.3 74 23.3 100 100 Calm 29.91 1013 5 8 0.00 0.00
6:53 am 06:53 Partly Cloudy with Mist and Fog 73 22.8 73 22.8 100 100 SSW 3 6 29.93 1014 3 5 0.00 0.00
7:53 am 07:53 Sunny with Mist and Fog 74 23.3 74 23.3 100 100 Calm 29.92 1013 5 8 0.00 0.00
8:53 am 08:53 Sunny 79 26.1 76 24.4 90 90 S 5 7 29.93 1013 8 13 0.00 0.00
9:53 am 09:53 Mostly Sunny 81 27.2 76 24.4 85 85 Calm 29.95 1014 7 11 0.00 0.00
10:34 am 10:34 Mostly Cloudy 82 27.8 77 25 85 85 VRB 3 6 29.97 1015 7 11 0.00 0.00
10:41 am 10:41 Partly Cloudy 83 28.3 77 25 82 82 VRB 5 7 29.97 1015 8 13 0.00 0.00
10:53 am 10:53 Partly Cloudy 84 28.9 77 25 80 80 VRB 5 7 29.95 1014 8 13 0.00 0.00
11:20 am 11:20 Mostly Cloudy 83 28.3 77 25 82 82 Calm 29.97 1015 8 13 0.00 0.00
11:32 am 11:32 Partly Cloudy 85 29.4 77 25 77 77 Calm 29.97 1015 8 13 0.00 0.00
11:53 am 11:53 Mostly Cloudy 84 28.9 77 25 80 80 VRB 3 6 29.96 1014 8 13 0.00 0.00
12:07 pm 12:07 Partly Cloudy 86 30 77 25 75 75 VRB 5 7 29.97 1015 7 11 0.00 0.00
12:16 pm 12:16 Mostly Cloudy 84 28.9 76 24.4 77 77 VRB 3 6 29.97 1015 7 11 0.00 0.00
12:37 pm 12:37 Cloudy 84 28.9 76 24.4 77 77 Calm 29.97 1015 8 13 0.00 0.00
12:53 pm 12:53 Mostly Cloudy 86 30 77 25 75 75 Calm 29.95 1014 8 13 0.00 0.00
1:53 pm 13:53 Mostly Cloudy 89 31.7 76 24.4 65 65 Calm 29.93 1014 8 13 0.00 0.00
2:05 pm 14:05 Mostly Cloudy with Nearby Thunderstorms 89 31.7 76 24.4 65 65 N 6 9 29.94 1014 9 14 0.00 0.00
2:53 pm 14:53 Mostly Sunny 81 27.2 75 23.9 82 82 S 8 13 29.93 1014 9 14 0.00 0.00
3:13 pm 15:13 Sunny with Nearby Thunderstorms 80 26.7 75 23.9 85 85 VRB 5 7 29.94 1014 9 14 0.00 0.00
3:26 pm 15:26 Sunny with Thunderstorms 80 26.7 74 23.3 82 82 SSW 6 9 29.94 1014 9 14 0.00 0.00
3:53 pm 15:53 Partly Cloudy with Thunderstorms 79 26.1 74 23.3 85 85 Calm 29.95 1014 10 16 0.00 0.00
4:09 pm 16:09 Mostly Cloudy with Nearby Thunderstorms 79 26.1 74 23.3 85 85 Calm 29.94 1014 10 16 0.00 0.00
4:37 pm 16:37 Sunny 79 26.1 74 23.3 85 85 Calm 29.94 1014 10 16 0.00 0.00
4:45 pm 16:45 Sunny with Nearby Thunderstorms 79 26.1 75 23.9 88 88 Calm 29.97 1015 10 16 0.00 0.00
4:53 pm 16:53 Sunny with Nearby Thunderstorms 78 25.6 75 23.9 90 90 SE 5 7 29.95 1014 9 14 0.00 0.00
5:00 pm 17:00 Sunny 79 26.1 75 23.9 88 88 S 3 6 29.94 1014 9 14 0.00 0.00
5:53 pm 17:53 Sunny 80 26.7 76 24.4 87 87 S 3 6 29.95 1014 9 14 0.00 0.00
6:53 pm 18:53 Sunny 79 26.1 75 23.9 88 88 Calm 29.95 1014 10 16 0.00 0.00
7:53 pm 19:53 Sunny 77 25 76 24.4 96 96 Calm 29.96 1014 9 14 0.00 0.00
8:53 pm 20:53 Clear 76 24.4 75 23.9 97 97 Calm 29.96 1015 10 16 0.00 0.00
9:53 pm 21:53 Clear 75 23.9 75 23.9 100 100 Calm 29.98 1015 9 14 0.00 0.00
10:53 pm 22:53 Clear with Mist and Fog 73 22.8 73 22.8 100 100 Calm 30.00 1016 6 10 0.00 0.00
11:53 pm 23:53 Clear 73 22.8 73 22.8 100 100 VRB 3 6 30.01 1016 8 13 0.00 0.00

Powered by AerisWeather